Weather History for Newark Heath, OH

Change the Weather History Date:

Monday, December 10, 2012

  Actual Average Record
Temperature  
Mean Temperature 47 °F -  
Max Temperature 59 °F 40 °F 72 °F (1971)
Min Temperature 35 °F 25 °F -12 °F (1958)
Degree Days  
Heating Degree Days 18    
Moisture  
Dew Point 42 °F    
Average Humidity 86    
Maximum Humidity 94    
Minimum Humidity 76    
Precipitation  
Precipitation 0.35 in - - ()
Sea Level Pressure  
Sea Level Pressure 29.70 in    
Wind  
Wind Speed 8 mph (West)    
Max Wind Speed 14 mph    
Max Gust Speed 17 mph    
Visibility 8 miles    
Events Rain , Thunderstorm    
Averages and records for this station are not official NWS values.
T = Trace of Precipitation, MM = Missing Value Source: NWS Daily Summary

Daily Weather History Graph

Daily Weather History Graph

Search for Another Location

Airport:

Trip Planner

Search our weather history database for the weather conditions in past years. The results will help you decide how hot, cold, wet, or windy it might be!

Date:

Astronomy

Dec. 10, 2012 Rise Set
Actual Time 7:41 AM EST 5:04 PM EST
Civil Twilight 7:10 AM EST 5:34 PM EST
Nautical Twilight 6:36 AM EST 6:08 PM EST
Astronomical Twilight 6:03 AM EST 6:41 PM EST
Moon 4:23 AM EST (12/10) 2:52 PM EST (12/10)
Length of Visible Light 10h 24m
Length of Day
9h 23m
Waning Crescent, 10% of the Moon is Illuminated
Dec 10
Waning Crescent
Dec 13
New
Dec 20
First Quarter
Dec 28
Full
Jan 4
Last Quarter

Hourly Weather History & Observations

Time (EST) Temp. Windchill Dew Point Humidity Pressure Visibility Wind Dir Wind Speed Gust Speed Precip Events Conditions
12:08 AM 59.0 °F - 55.4 °F 88% 29.67 in 3.0 mi SW 6.9 mph - 0.09 in Rain Light Rain
12:22 AM 59.0 °F - 55.4 °F 88% 29.69 in 2.5 mi WSW 12.7 mph - 0.15 in Rain Light Rain
12:29 AM 59.0 °F - 55.4 °F 88% 29.69 in 10.0 mi WSW 11.5 mph - 0.16 in Rain Light Rain
12:54 AM 57.9 °F - 54.0 °F 87% 29.70 in 10.0 mi WSW 9.2 mph - 0.16 in Rain Light Rain
1:54 AM 55.9 °F - 53.1 °F 90% 29.67 in 7.0 mi SW 8.1 mph - 0.06 in Rain Light Rain
2:54 AM 55.0 °F - 52.0 °F 89% 29.67 in 10.0 mi SSW 8.1 mph - 0.04 in Rain Light Rain
3:17 AM 55.4 °F - 51.8 °F 88% 29.66 in 10.0 mi South 6.9 mph - 0.00 in   Overcast
3:33 AM 55.4 °F - 51.8 °F 88% 29.65 in 10.0 mi West 5.8 mph - 0.00 in   Overcast
3:54 AM 55.9 °F - 52.0 °F 87% 29.65 in 10.0 mi SSW 12.7 mph - 0.00 in   Overcast
4:46 AM 55.4 °F - 53.6 °F 94% 29.65 in 4.0 mi SSW 8.1 mph - 0.02 in   Overcast
4:54 AM 55.0 °F - 53.1 °F 93% 29.65 in 3.0 mi SSW 8.1 mph - 0.02 in   Overcast
5:54 AM 55.9 °F - 53.1 °F 90% 29.63 in 10.0 mi SSW 8.1 mph - 0.01 in Rain Light Rain
6:54 AM 52.0 °F - 48.9 °F 89% 29.65 in 10.0 mi WNW 8.1 mph - 0.00 in   Overcast
7:15 AM 51.8 °F - 48.2 °F 88% 29.65 in 8.0 mi WNW 9.2 mph - N/A   Overcast
7:27 AM 51.8 °F - 48.2 °F 88% 29.65 in 5.0 mi WNW 8.1 mph - N/A   Overcast
7:44 AM 51.8 °F - 48.2 °F 88% 29.65 in 5.0 mi WNW 3.5 mph - N/A   Overcast
7:54 AM 51.1 °F - 48.0 °F 89% 29.65 in 7.0 mi West 3.5 mph - N/A   Overcast
8:10 AM 51.8 °F - 48.2 °F 88% 29.65 in 10.0 mi Calm Calm - N/A   Overcast
8:20 AM 51.8 °F - 48.2 °F 88% 29.65 in 10.0 mi Calm Calm - N/A   Overcast
8:54 AM 51.1 °F - 46.0 °F 83% 29.67 in 10.0 mi West 9.2 mph - N/A   Overcast
9:32 AM 50.0 °F - 46.4 °F 87% 29.65 in 7.0 mi WNW 9.2 mph - N/A   Overcast
9:54 AM 48.9 °F - 45.0 °F 86% 29.67 in 6.0 mi WNW 8.1 mph - 0.00 in Rain Light Rain
10:06 AM 46.4 °F 40.4 °F 42.8 °F 87% 29.66 in 4.0 mi NW 13.8 mph - 0.00 in Rain Light Rain
10:54 AM 45.0 °F 41.2 °F 41.0 °F 86% 29.66 in 5.0 mi NW 6.9 mph - 0.00 in   Overcast
11:28 AM 42.8 °F 36.6 °F 39.2 °F 87% 29.67 in 8.0 mi WNW 11.5 mph - N/A Thunderstorm Overcast
11:41 AM 42.8 °F 36.6 °F 37.4 °F 81% 29.66 in 9.0 mi WNW 11.5 mph - N/A   Overcast
11:50 AM 42.8 °F 37.0 °F 37.4 °F 81% 29.66 in 10.0 mi WNW 10.4 mph - N/A   Overcast
11:54 AM 42.1 °F 37.1 °F 37.0 °F 82% 29.66 in 10.0 mi WNW 8.1 mph - N/A   Overcast
12:19 PM 42.8 °F 37.5 °F 35.6 °F 76% 29.66 in 10.0 mi WNW 9.2 mph 17.3 mph N/A   Overcast
12:34 PM 42.8 °F 37.0 °F 37.4 °F 81% 29.67 in 10.0 mi WNW 10.4 mph - N/A   Overcast
12:46 PM 42.8 °F 38.0 °F 37.4 °F 81% 29.68 in 6.0 mi West 8.1 mph 17.3 mph 0.00 in Rain Light Rain
12:54 PM 41.0 °F 33.9 °F 36.0 °F 82% 29.68 in 5.0 mi WNW 12.7 mph - 0.01 in Rain Light Rain
1:40 PM 39.2 °F 33.6 °F 33.8 °F 81% 29.68 in 9.0 mi NW 8.1 mph - 0.02 in Rain Light Rain
1:51 PM 39.2 °F 33.0 °F 33.8 °F 81% 29.67 in 10.0 mi NW 9.2 mph - 0.02 in   Overcast
1:54 PM 39.9 °F 32.9 °F 34.0 °F 79% 29.68 in 10.0 mi WNW 11.5 mph 16.1 mph 0.02 in   Overcast
2:54 PM 41.0 °F 37.1 °F 35.1 °F 79% 29.68 in 10.0 mi NW 5.8 mph - N/A   Overcast
3:54 PM 39.9 °F 34.5 °F 33.1 °F 77% 29.70 in 10.0 mi NNW 8.1 mph - N/A   Overcast
4:54 PM 39.9 °F 34.5 °F 34.0 °F 79% 29.74 in 10.0 mi WNW 8.1 mph - 0.00 in   Overcast
5:27 PM 37.4 °F 33.8 °F 33.8 °F 87% 29.73 in 9.0 mi WNW 4.6 mph - 0.01 in Rain Light Rain
5:54 PM 37.0 °F 32.4 °F 33.1 °F 86% 29.75 in 6.0 mi WNW 5.8 mph - 0.02 in Rain Light Rain
6:10 PM 37.4 °F 33.8 °F 33.8 °F 87% 29.75 in 7.0 mi WNW 4.6 mph - 0.00 in Rain Light Rain
6:54 PM 36.0 °F 33.3 °F 33.1 °F 89% 29.77 in 7.0 mi West 3.5 mph - 0.01 in   Overcast
7:29 PM 35.6 °F 32.8 °F 33.8 °F 93% 29.75 in 8.0 mi SSW 3.5 mph - 0.00 in   Overcast
8:14 PM 35.6 °F 28.6 °F 33.8 °F 93% 29.79 in 7.0 mi West 9.2 mph - N/A   Overcast
8:43 PM 35.6 °F 29.2 °F 30.2 °F 81% 29.80 in 7.0 mi WNW 8.1 mph - N/A   Overcast
8:54 PM 36.0 °F 28.0 °F 30.9 °F 82% 29.82 in 7.0 mi West 11.5 mph - N/A   Overcast
9:54 PM 36.0 °F 31.1 °F 30.9 °F 82% 29.85 in 7.0 mi West 5.8 mph - N/A   Overcast
10:54 PM 35.1 °F 29.3 °F 30.9 °F 85% 29.87 in 8.0 mi West 6.9 mph - N/A   Overcast
11:54 PM 36.0 °F 31.1 °F 30.9 °F 82% 29.90 in 9.0 mi West 5.8 mph - N/A   Overcast